This demonstration page uses our WeatherBlox Daily Observations layout. Learn more.

Left ArrowRight Arrow

Hourly Observations for November 23, 2019

Temp ( °F °C ) Dew Point ( °F °C ) Humidity (%) Winds ( mph kmh ) Pressure ( in mb ) Visibility ( mi km ) Precip ( " mm )
12:53 am 00:53 Clear 40 4.4 31 -0.6 70 70 Calm 30.20 1023 10 16 0.00 0.00
1:53 am 01:53 Clear 38 3.3 30 -1.1 73 73 E 3 6 30.20 1023 10 16 0.00 0.00
2:53 am 02:53 Clear 39 3.9 32 0 76 76 Calm 30.20 1023 10 16 0.00 0.00
3:53 am 03:53 Clear 39 3.9 32 0 76 76 Calm 30.21 1023 10 16 0.00 0.00
4:53 am 04:53 Clear 38 3.3 32 0 79 79 N 3 6 30.22 1023 10 16 0.00 0.00
5:53 am 05:53 Clear 36 2.2 32 0 86 86 Calm 30.22 1023 10 16 0.00 0.00
6:53 am 06:53 Clear 35 1.7 29 -1.7 78 78 Calm 30.24 1024 10 16 0.00 0.00
7:53 am 07:53 Sunny 38 3.3 31 -0.6 76 76 Calm 30.26 1025 10 16 0.00 0.00
8:53 am 08:53 Sunny 45 7.2 34 1.1 66 66 Calm 30.26 1025 10 16 0.00 0.00
9:53 am 09:53 Sunny 53 11.7 36 2.2 52 52 Calm 30.26 1025 10 16 0.00 0.00
10:53 am 10:53 Sunny 66 18.9 34 1.1 30 30 N 9 15 30.24 1024 10 16 0.00 0.00
11:53 am 11:53 Sunny 69 20.6 33 0.6 26 26 NNW 8 13 30.22 1023 10 16 0.00 0.00
12:53 pm 12:53 Sunny 71 21.7 33 0.6 25 25 WNW 7 11 30.18 1022 10 16 0.00 0.00
1:53 pm 13:53 Sunny 73 22.8 32 0 22 22 NNW 9 15 30.15 1021 10 16 0.00 0.00
2:53 pm 14:53 Sunny 73 22.8 32 0 22 22 N 6 9 30.14 1021 10 16 0.00 0.00
3:53 pm 15:53 Sunny 72 22.2 31 -0.6 22 22 N 9 15 30.14 1021 10 16 0.00 0.00
4:53 pm 16:53 Clear 65 18.3 33 0.6 31 31 NNW 5 7 30.14 1021 10 16 0.00 0.00
5:53 pm 17:53 Clear 61 16.1 33 0.6 35 35 W 3 6 30.14 1021 10 16 0.00 0.00
6:53 pm 18:53 Clear 56 13.3 33 0.6 42 42 WNW 6 9 30.14 1021 10 16 0.00 0.00
7:53 pm 19:53 Clear 52 11.1 32 0 47 47 N 3 6 30.16 1021 10 16 0.00 0.00
8:53 pm 20:53 Clear 47 8.3 30 -1.1 52 52 NNE 3 6 30.16 1022 10 16 0.00 0.00
9:53 pm 21:53 Clear 46 7.8 31 -0.6 56 56 Calm 30.17 1022 10 16 0.00 0.00
10:53 pm 22:53 Clear 43 6.1 30 -1.1 60 60 N 5 7 30.17 1022 10 16 0.00 0.00
11:53 pm 23:53 Clear 42 5.6 30 -1.1 62 62 Calm 30.17 1022 10 16 0.00 0.00

Powered by AerisWeather